![]() |
EMODnet Physics ERDDAP
Easier access to scientific data |
log in|
Brought to you by EMODnet Physics |
| Dataset Title: | NDBC - Collection of dew point temperature (DEWT) TimeSeries - IN SITU MultiPointTimeSeriesObservation
|
| Institution: | NDBC (Dataset ID: TS_DEWT_NDBC) |
| Information: | Summary
| License
| FGDC
| ISO 19115
| Metadata
| Background
| Subset
| Data Access Form
| Make a graph
|
| Name | Last modified | Size | Description | |
|---|---|---|---|---|
| Parent Directory | - | - | ||
| 45176_TS_DEWT_032017.nc | 26-Dec-2024 19:29 | 1646506 | ||
| 45176_TS_DEWT_042017.nc | 26-Dec-2024 19:30 | 1486195 | ||
| 45176_TS_DEWT_052017.nc | 26-Dec-2024 19:30 | 915355 | ||
| 45176_TS_DEWT_052018.nc | 26-Dec-2024 19:33 | 1011607 | ||
| 45176_TS_DEWT_052023.nc | 17-Feb-2026 15:09 | 1479483 | ||
| 45176_TS_DEWT_052024.nc | 17-Feb-2026 15:16 | 1169746 | ||
| 45176_TS_DEWT_052025.nc | 17-Feb-2026 15:25 | 1482840 | ||
| 45176_TS_DEWT_062016.nc | 26-Dec-2024 19:27 | 1177320 | ||
| 45176_TS_DEWT_062017.nc | 26-Dec-2024 19:31 | 431490 | ||
| 45176_TS_DEWT_062018.nc | 26-Dec-2024 19:34 | 932835 | ||
| 45176_TS_DEWT_062023.nc | 17-Feb-2026 15:10 | 1482832 | ||
| 45176_TS_DEWT_062024.nc | 17-Feb-2026 15:17 | 1646527 | ||
| 45176_TS_DEWT_062025.nc | 17-Feb-2026 15:26 | 1170254 | ||
| 45176_TS_DEWT_072016.nc | 26-Dec-2024 19:27 | 422309 | ||
| 45176_TS_DEWT_072017.nc | 26-Dec-2024 19:31 | 1626495 | ||
| 45176_TS_DEWT_072018.nc | 26-Dec-2024 19:34 | 1476523 | ||
| 45176_TS_DEWT_072023.nc | 17-Feb-2026 15:11 | 1463247 | ||
| 45176_TS_DEWT_072024.nc | 17-Feb-2026 15:18 | 1627406 | ||
| 45176_TS_DEWT_072025.nc | 17-Feb-2026 15:27 | 428225 | ||
| 45176_TS_DEWT_082016.nc | 26-Dec-2024 19:28 | 1473892 | ||
| 45176_TS_DEWT_082017.nc | 26-Dec-2024 19:32 | 1470019 | ||
| 45176_TS_DEWT_082018.nc | 26-Dec-2024 19:35 | 1470780 | ||
| 45176_TS_DEWT_082023.nc | 17-Feb-2026 15:12 | 1465087 | ||
| 45176_TS_DEWT_082024.nc | 17-Feb-2026 15:20 | 419170 | ||
| 45176_TS_DEWT_082025.nc | 17-Feb-2026 15:28 | 1470769 | ||
| 45176_TS_DEWT_092016.nc | 26-Dec-2024 19:28 | 1151191 | ||
| 45176_TS_DEWT_092017.nc | 26-Dec-2024 19:32 | 1469157 | ||
| 45176_TS_DEWT_092018.nc | 26-Dec-2024 19:35 | 1478407 | ||
| 45176_TS_DEWT_092023.nc | 17-Feb-2026 15:13 | 1469063 | ||
| 45176_TS_DEWT_092024.nc | 17-Feb-2026 15:21 | 1462643 | ||
| 45176_TS_DEWT_092025.nc | 17-Feb-2026 15:29 | 1470548 | ||
| 45176_TS_DEWT_102016.nc | 26-Dec-2024 19:29 | 1473258 | ||
| 45176_TS_DEWT_102017.nc | 26-Dec-2024 19:33 | 1475415 | ||
| 45176_TS_DEWT_102018.nc | 26-Dec-2024 19:36 | 1464832 | ||
| 45176_TS_DEWT_102023.nc | 17-Feb-2026 15:14 | 1471533 | ||
| 45176_TS_DEWT_102024.nc | 17-Feb-2026 15:22 | 1476722 | ||
| 45176_TS_DEWT_102025.nc | 17-Feb-2026 15:30 | 1461142 | ||
| 45176_TS_DEWT_112017.nc | 26-Dec-2024 19:33 | 1463190 | ||
| 45176_TS_DEWT_112018.nc | 26-Dec-2024 19:36 | 1473795 | ||
| 45176_TS_DEWT_112023.nc | 17-Feb-2026 15:15 | 1473249 | ||
| 45176_TS_DEWT_112024.nc | 17-Feb-2026 15:24 | 996536 | ||
| 45176_TS_DEWT_112025.nc | 17-Feb-2026 15:31 | 1464257 | ||